This demonstration page uses our WeatherBlox Daily Observations layout. Learn more.

Left ArrowRight Arrow

39.29038, -76.61219

Hourly Observations for July 21, 2021

Temp ( °F °C ) Dew Point ( °F °C ) Humidity (%) Winds ( mph kmh ) Pressure ( in mb ) Visibility ( mi km ) Precip ( " mm )
12:54 am 00:54 Clear 77 25 67 19.4 71 71 SW 3 6 29.88 1012 7 11 N/A
1:54 am 01:54 Hazy 74 23.3 66 18.9 76 76 WSW 3 6 29.87 1012 6 10 N/A
2:54 am 02:54 Mostly Clear 75 23.9 66 18.9 74 74 WSW 3 6 29.86 1011 7 11 N/A
3:54 am 03:54 Clear 75 23.9 66 18.9 74 74 SW 3 6 29.85 1011 8 13 N/A
4:54 am 04:54 Partly Cloudy 73 22.8 66 18.9 79 79 W 5 7 29.86 1011 8 13 N/A
5:54 am 05:54 Mostly Cloudy 74 23.3 67 19.4 79 79 WNW 3 6 29.86 1011 7 11 N/A
6:54 am 06:54 Mostly Cloudy with Haze 75 23.9 66 18.9 74 74 W 5 7 29.87 1012 5 8 N/A
7:54 am 07:54 Mostly Cloudy with Haze 77 25 66 18.9 69 69 W 6 9 29.88 1012 5 8 N/A
8:54 am 08:54 Mostly Cloudy with Haze 82 27.8 66 18.9 58 58 W 8 13 29.89 1012 6 10 N/A
9:54 am 09:54 Hazy 86 30 67 19.4 53 53 WNW 7 11 29.89 1012 6 10 N/A
10:54 am 10:54 Hazy 88 31.1 67 19.4 50 50 VRB 7 11 29.89 1012 6 10 N/A
11:54 am 11:54 Hazy 89 31.7 67 19.4 48 48 NNW 10 17 29.90 1012 6 10 N/A
12:54 pm 12:54 Hazy 91 32.8 65 18.3 42 42 W 9 15 29.89 1012 6 10 N/A
1:54 pm 13:54 Hazy 91 32.8 64 17.8 41 41 NW 12 19 29.85 1011 6 10 N/A
2:54 pm 14:54 Hazy 92 33.3 64 17.8 40 40 WNW 13 20 29.85 1011 6 10 N/A
3:37 pm 15:37 Mostly Cloudy with Light Rain 72 22.2 66 18.9 82 82 WNW 13 20 29.89 1012 4 6 0.02 0.51
3:54 pm 15:54 Mostly Cloudy with Light Rain 74 23.3 66 18.9 76 76 WSW 6 9 29.88 1012 7 11 0.03 0.76
4:54 pm 16:54 Partly Cloudy 84 28.9 68 20 59 59 NW 5 7 29.87 1011 7 11 0.00 0.00
5:54 pm 17:54 Partly Cloudy 86 30 65 18.3 49 49 NW 9 15 29.88 1012 10 16 N/A
6:54 pm 18:54 Sunny 85 29.4 66 18.9 53 53 WNW 7 11 29.89 1012 10 16 N/A
7:54 pm 19:54 Partly Cloudy 83 28.3 65 18.3 55 55 NNE 8 13 29.91 1013 7 11 N/A
8:34 pm 20:34 Mostly Cloudy 81 27.2 64 17.8 57 57 NNW 15 24 29.94 1014 7 11 N/A
8:54 pm 20:54 Mostly Cloudy with Light Rain 73 22.8 66 18.9 79 79 VRB 3 6 29.96 1015 7 11 0.05 1.27
9:54 pm 21:54 Partly Cloudy 74 23.3 62 16.7 67 67 NNE 9 15 29.99 1016 10 16 0.00 0.00
10:54 pm 22:54 Mostly Clear 74 23.3 61 16.1 64 64 N 9 15 30.01 1016 10 16 N/A
11:54 pm 23:54 Clear 72 22.2 62 16.7 71 71 NNW 5 7 30.03 1017 10 16 N/A

Powered by AerisWeather